Temperature
14 13 13 12 12 12 12 11 11 11 11 11 11 11 12 12 12 12 12 12 13 13 13 13 14 14 14 15 15 15 15 15 15 16 16 16 16 16 16 17 17 17 17
14 13 13 13 12 12 12 12 11 11 11 11 11 11 11 11 11 12 12 12 12 13 13 13 13 13 14 14 14 14 15 15 15 15 15 16 16 16 16 16 16 16 16
14 13 13 13 12 12 12 12 11 11 11 11 11 11 11 11 11 11 12 12 12 12 13 13 13 13 13 14 14 14 14 14 14 14 15 15 15 15 16 16 16 16 16
14 14 13 13 13 12 12 11 11 11 11 11 11 11 11 11 11 11 12 12 12 12 12 13 13 13 13 13 14 14 14 14 14 14 14 14 15 15 15 15 15 15 15
15 14 14 13 13 12 12 11 11 11 11 11 11 11 11 11 11 11 12 12 12 12 12 12 12 13 13 13 13 14 14 14 14 14 14 14 14 14 15 15 15 15 15
15 15 14 13 13 12 12 12 11 11 11 11 11 11 11 11 11 11 11 11 12 12 12 12 12 12 13 13 13 13 13 13 14 14 14 14 14 14 14 14 14 14 14
15 15 14 14 13 13 12 12 12 11 11 11 11 11 11 11 11 11 11 11 11 12 12 12 12 12 12 12 13 13 13 13 13 13 14 14 14 14 14 14 14 14 14
16 15 14 14 13 13 13 12 12 12 11 11 11 11 11 11 11 11 11 11 11 11 11 12 12 12 12 12 12 13 13 13 13 13 13 14 14 14 14 14 14 14 14
16 15 15 14 14 13 13 13 12 12 12 12 12 11 11 11 11 11 11 11 11 11 11 11 12 12 12 12 12 12 13 13 13 13 13 13 14 14 14 13 13 13 13
16 16 15 15 14 14 13 13 13 12 12 12 12 12 12 11 11 11 11 11 11 11 11 11 11 12 12 12 12 12 12 13 13 13 13 13 13 13 13 13 13 13 13
16 16 15 15 14 14 14 13 13 13 12 12 12 12 12 12 12 12 12 11 11 11 11 11 11 11 12 12 12 12 12 13 13 13 13 13 13 13 13 13 13 13 13
15 15 15 15 14 14 14 14 13 13 13 13 12 12 12 12 12 12 12 12 11 11 11 11 11 12 12 12 12 12 12 12 12 12 12 12 13 13 13 13 13 13 13
15 15 14 14 14 14 14 14 14 13 13 13 13 12 12 12 12 12 12 12 11 11 11 11 12 12 12 12 12 12 12 12 12 12 12 12 12 12 12 12 12 12 12
14 14 14 14 14 15 14 14 14 14 13 13 13 13 13 12 12 12 12 12 12 12 12 12 12 12 12 12 12 12 12 12 12 12 12 12 12 12 12 12 12 12 12
13 13 14 14 14 14 14 14 14 14 14 13 13 13 13 13 13 12 12 12 12 12 12 12 12 12 12 12 12 12 12 12 12 12 12 12 12 12 12 12 11 11 11
12 12 13 13 13 13 13 13 14 13 14 13 13 13 13 13 13 13 13 12 12 12 12 12 12 12 12 12 12 12 12 11 11 11 11 11 11 11 11 11 11 11 11
11 11 12 12 12 12 12 12 12 13 13 13 13 13 13 13 13 13 13 13 12 12 12 12 12 12 12 12 12 12 11 11 11 11 11 11 11 11 11 11 11 11 11
10 10 11 11 11 11 11 11 11 12 12 12 13 13 13 13 13 13 13 13 13 12 12 12 12 12 12 12 12 12 11 11 11 11 11 11 11 11 11 11 11 11 11
9 9 9 10 10 10 10 10 10 11 11 11 12 12 12 12 12 12 12 12 12 12 12 12 12 12 12 12 12 12 11 11 11 11 11 11 11 11 11 11 11 11 11
8 8 8 8 9 9 9 9 9 10 10 10 10 10 11 11 11 11 11 12 12 12 12 12 12 12 12 12 12 12 12 11 11 11 11 11 11 11 11 11 11 11 11
7 7 8 8 8 8 8 8 8 9 9 9 9 9 10 10 10 10 11 11 11 11 11 11 12 12 12 12 12 12 12 12 11 11 11 11 11 11 11 11 11 11 11
7 7 7 7 7 7 7 7 7 8 8 8 8 8 9 9 9 9 9 10 10 10 10 10 11 11 11 11 12 12 12 12 12 11 11 11 11 11 11 11 11 11 11
6 6 6 6 6 6 6 7 7 7 7 7 7 7 7 7 7 8 8 8 9 9 9 10 10 10 11 11 11 11 11 11 11 11 11 11 11 11 11 11 11 11 11
6 6 6 6 6 6 6 6 6 6 6 6 6 6 6 6 6 6 7 7 7 8 8 8 9 9 10 10 10 10 11 11 11 11 11 11 11 11 11 11 11 11 11
5 5 5 5 5 5 5 5 5 5 5 5 5 5 5 5 5 5 6 6 6 6 7 7 7 8 8 9 9 9 10 10 10 10 11 11 11 11 11 11 11 11 11
5 5 5 5 5 5 5 4 4 4 4 4 4 4 4 4 4 4 4 5 5 5 5 6 6 6 7 7 8 8 9 9 10 10 10 10 10 10 10 10 10 10 10
Wind_Speed
2 4 4 4 4 5 5 5 6 6 6 7 7 6 6 5 5 5 5 5 5 5 5 5 5 5 5 5 5 5 6 5 6 4 3 3 4 4 6 8 11 15 18
2 3 5 5 4 5 6 6 7 7 7 7 7 7 6 6 5 5 6 6 5 5 5 5 5 4 5 5 5 6 6 6 6 6 4 4 5 5 5 6 6 10 12
0 2 4 4 4 5 5 6 7 7 7 7 7 7 7 7 7 6 5 5 6 5 5 5 5 4 5 4 5 6 5 6 5 5 4 4 4 3 4 4 5 4 8
1 2 3 4 4 4 5 5 6 6 7 7 7 7 7 7 7 7 7 6 6 6 5 5 5 5 5 4 5 6 6 6 6 5 4 4 3 3 4 5 4 4 5
1 2 1 2 3 4 5 5 5 6 7 6 7 6 6 6 6 7 7 7 7 7 6 5 5 5 5 4 4 4 5 5 5 5 5 4 5 5 5 5 6 5 4
1 1 1 1 2 3 5 5 5 6 6 6 6 6 6 6 7 8 8 7 7 7 6 6 5 5 5 6 7 7 7 6 6 6 6 6 7 6 5 6 6 6 4
2 1 1 1 2 3 4 5 6 6 5 5 6 6 6 6 7 8 10 8 8 7 6 6 6 4 4 3 5 7 9 11 10 7 7 7 7 8 9 8 8 7 4
1 1 2 2 3 3 4 5 5 5 5 5 6 6 6 6 7 7 11 8 7 7 6 6 5 4 3 3 4 5 5 7 9 9 8 7 7 7 9 9 8 5 4
2 3 3 3 3 3 4 5 5 4 5 5 5 6 6 5 4 5 8 7 7 7 5 5 4 3 3 4 4 5 6 5 7 10 10 9 10 10 9 7 8 8 5
2 2 2 2 3 4 5 5 5 5 6 6 5 5 5 5 3 3 7 5 6 6 6 5 4 3 4 4 4 5 6 5 3 4 6 7 8 10 13 11 10 9 6
4 4 4 4 5 6 5 5 5 5 6 6 7 6 5 4 3 2 4 3 5 6 6 5 3 4 6 6 5 5 6 5 4 4 4 5 5 6 8 8 8 9 8
4 4 5 6 7 6 5 6 6 6 6 6 6 6 4 3 3 3 4 5 5 5 6 5 4 7 8 8 6 6 7 5 3 3 4 4 5 5 6 7 7 6 5
5 6 6 7 7 6 6 7 6 5 5 5 4 5 4 3 2 4 5 7 7 4 5 8 9 10 9 6 6 6 5 3 4 4 4 4 3 5 5 5 5 5 5
7 7 6 6 6 5 4 4 4 4 4 4 4 5 5 4 2 1 2 4 5 5 6 7 9 8 6 5 5 4 3 3 3 3 3 3 3 4 5 5 5 5 5
8 8 7 6 5 5 5 4 5 5 5 6 5 5 5 5 4 3 2 3 3 3 5 4 4 4 3 2 2 2 2 1 2 2 3 4 4 4 4 5 5 5 5
8 8 7 7 6 5 6 6 8 8 10 11 11 9 7 9 8 7 7 7 7 6 4 4 4 4 3 3 2 2 2 2 3 3 4 4 4 5 4 4 4 5 6
8 8 7 7 7 7 7 6 7 8 9 11 12 13 13 13 12 11 9 8 9 6 3 5 5 4 4 3 2 2 2 3 3 4 4 5 5 5 5 6 6 5 6
8 9 9 7 7 7 7 7 6 7 6 6 8 10 12 13 14 13 8 4 5 5 5 6 6 5 4 4 3 3 3 3 3 4 4 5 6 6 6 6 6 6 7
7 6 7 8 7 7 7 7 7 7 7 6 6 6 8 9 10 10 6 5 7 7 6 6 6 6 5 5 4 4 4 4 4 4 5 5 6 6 6 7 7 9 7
7 10 10 7 7 7 7 7 7 7 7 7 7 7 6 5 5 5 3 5 7 7 7 7 6 6 6 5 5 5 5 4 5 5 5 5 6 6 7 8 7 8 7
7 8 11 8 7 7 8 8 7 7 7 8 7 9 11 6 5 6 6 5 5 6 6 6 6 6 6 5 5 6 7 6 6 6 6 6 6 6 6 7 7 8 7
7 7 6 7 6 7 7 7 7 7 8 8 8 8 12 8 7 8 8 8 7 6 6 6 5 5 4 4 5 6 7 7 7 7 7 7 7 7 7 7 7 7 8
7 7 7 6 6 8 8 7 7 7 8 8 8 8 8 8 8 8 8 9 9 9 8 7 6 5 5 4 4 5 6 7 7 7 8 8 8 8 8 8 9 9 9
7 7 7 6 6 6 7 7 7 7 8 8 8 8 8 8 8 10 9 8 9 9 9 9 9 10 10 7 5 4 4 5 5 7 9 9 9 8 8 8 9 10 10
7 6 6 6 6 6 7 7 7 7 7 8 8 8 8 8 8 8 8 8 10 11 12 11 9 11 14 13 9 7 8 9 7 5 6 8 9 9 8 9 8 9 8
7 6 5 5 5 6 6 7 7 8 8 8 7 8 8 8 8 8 8 8 9 9 10 10 13 14 16 13 13 12 11 10 9 9 6 6 8 9 9 8 10 10 10
Wind_Direction
355 341 333 324 315 316 322 327 322 321 322 323 324 326 324 320 313 308 299 293 290 286 276 261 250 235 222 213 210 209 212 204 220 233 216 222 212 211 192 194 185 178 190
33 343 322 309 326 340 341 340 338 336 333 332 335 336 334 329 322 312 311 312 302 299 293 281 268 256 230 220 209 211 213 210 208 220 218 211 213 201 192 195 184 180 182
150 302 307 327 350 344 338 345 337 334 336 338 340 342 341 336 329 324 321 315 307 298 292 286 273 265 250 231 215 214 213 216 207 211 215 208 211 196 185 189 179 174 177
204 253 305 330 340 341 341 332 323 332 332 331 335 336 338 341 343 350 339 321 312 305 298 290 276 263 257 247 231 220 212 212 207 205 211 203 201 193 178 177 179 175 170
229 239 289 335 338 337 326 317 322 328 327 327 330 331 333 334 350 353 335 323 316 308 303 297 287 266 255 254 250 231 217 213 206 203 206 205 198 184 190 182 182 172 172
251 255 172 282 304 308 307 315 324 316 312 317 322 324 326 334 342 339 334 318 310 303 300 297 286 268 254 249 249 246 229 220 212 207 211 210 206 197 185 180 173 171 185
255 253 207 261 292 296 311 320 313 310 316 319 317 320 322 327 327 329 331 318 302 299 297 297 295 287 277 265 257 251 240 234 227 216 214 215 206 195 186 187 186 179 178
237 277 251 233 254 276 288 292 292 300 310 310 309 312 313 320 327 331 330 314 301 299 299 297 290 290 303 304 283 270 251 233 229 226 221 221 214 195 189 189 180 158 131
221 240 255 240 248 266 279 284 285 289 292 291 297 300 301 303 316 328 332 313 309 309 311 315 311 295 308 312 286 274 266 250 239 228 213 210 200 191 178 168 166 165 166
308 283 285 274 257 259 267 277 281 280 277 284 287 283 285 292 292 313 331 313 317 319 319 312 309 314 314 312 280 271 266 262 247 222 210 206 200 193 187 185 179 175 162
356 337 312 289 268 256 250 257 270 278 282 283 283 277 270 269 269 269 315 311 313 316 316 317 318 319 310 294 282 263 258 259 255 226 201 191 186 187 189 189 187 181 176
323 302 287 277 272 271 252 247 252 264 275 280 285 291 282 264 237 241 275 288 298 297 299 306 310 312 306 296 281 266 267 255 237 218 204 197 191 186 182 183 183 182 178
304 288 279 276 268 256 250 249 249 251 258 271 280 288 290 281 242 233 263 282 287 286 289 295 299 297 295 286 265 266 260 233 215 211 205 198 188 176 165 162 156 146 132
312 299 292 289 286 284 271 257 253 254 258 267 275 282 287 287 290 277 282 293 296 298 299 302 299 289 278 271 271 259 240 226 209 201 182 166 155 159 162 160 162 155 143
326 326 321 315 311 304 295 278 271 259 247 248 255 262 276 282 273 266 261 277 300 315 322 312 306 299 287 271 257 241 224 208 191 177 164 161 158 158 159 156 159 160 162
341 343 340 333 326 317 308 304 281 271 266 254 248 250 260 257 263 262 266 273 286 300 312 293 295 293 288 277 264 244 216 196 183 170 165 166 167 167 164 160 161 167 164
347 349 341 336 332 327 324 319 316 306 283 273 266 261 255 261 267 266 268 280 283 277 261 264 268 268 263 258 250 235 221 195 177 175 175 175 173 172 170 171 171 167 165
354 355 348 334 330 329 327 324 322 323 325 318 290 271 270 270 267 264 264 279 277 247 238 250 255 253 248 242 236 232 214 188 179 183 183 182 180 177 178 178 176 173 167
353 353 341 332 330 333 332 331 331 330 330 329 333 336 314 295 286 275 248 235 255 260 253 249 247 244 239 234 228 223 215 201 191 188 190 188 184 182 184 184 179 175 169
345 349 347 340 344 348 345 343 342 342 341 340 341 344 350 347 329 308 259 246 254 261 261 259 252 244 235 229 225 216 212 209 201 197 196 196 192 185 183 183 180 175 176
343 344 350 350 351 351 346 345 348 349 349 347 344 345 350 344 332 331 333 322 305 293 284 278 272 256 239 229 221 218 217 214 207 201 198 197 195 190 186 182 180 176 173
342 345 347 348 348 350 345 345 349 348 347 346 342 344 348 351 345 341 335 331 325 321 316 304 289 281 267 246 230 219 218 218 214 206 201 199 197 194 188 184 183 181 179
338 342 345 346 345 345 346 346 346 346 346 345 346 348 350 348 342 340 340 340 338 334 331 325 313 304 295 278 265 244 228 221 214 207 203 201 199 195 188 187 187 183 184
331 334 337 337 339 340 338 339 340 342 343 343 343 343 344 342 341 341 342 339 340 339 337 335 329 321 316 308 286 272 276 272 240 218 209 206 203 197 191 190 188 186 187
321 324 327 330 332 332 331 332 332 335 335 335 335 336 336 334 334 334 336 338 337 336 335 333 331 331 323 319 320 310 290 278 274 260 225 210 206 202 196 193 190 186 186
309 314 320 324 326 326 326 325 325 327 326 326 326 324 323 323 324 325 326 326 327 326 328 331 331 328 329 327 320 320 309 293 277 268 254 227 212 207 201 199 195 192 188
Height
1510 1508 1506 1504 1502 1499 1497 1495 1492 1490 1487 1485 1483 1480 1478 1476 1475 1474 1473 1473 1472 1472 1472 1473 1473 1474 1475 1477 1479 1481 1483 1486 1487 1490 1492 1494 1497 1499 1502 1505 1509 1512 1516
1509 1507 1505 1503 1501 1499 1496 1494 1491 1489 1486 1484 1481 1479 1477 1475 1474 1472 1471 1470 1470 1469 1469 1470 1470 1471 1472 1473 1474 1476 1478 1480 1483 1485 1487 1489 1492 1494 1497 1500 1503 1507 1510
1508 1506 1504 1503 1500 1498 1495 1493 1490 1488 1485 1483 1480 1478 1475 1473 1472 1470 1469 1468 1467 1467 1467 1467 1467 1468 1468 1469 1470 1471 1473 1475 1478 1480 1482 1484 1487 1490 1492 1494 1498 1501 1505
1507 1505 1503 1502 1499 1497 1494 1492 1489 1487 1484 1482 1479 1477 1474 1472 1470 1468 1467 1466 1465 1464 1464 1464 1464 1464 1465 1465 1466 1467 1469 1471 1473 1475 1477 1479 1482 1484 1487 1489 1492 1496 1499
1506 1505 1503 1501 1499 1496 1493 1491 1488 1486 1483 1481 1478 1475 1473 1471 1469 1467 1465 1463 1462 1462 1462 1461 1461 1461 1461 1462 1462 1463 1465 1466 1468 1470 1472 1474 1476 1479 1481 1484 1487 1490 1494
1505 1504 1502 1499 1497 1495 1493 1490 1487 1485 1482 1480 1477 1474 1472 1470 1468 1465 1463 1461 1460 1459 1458 1458 1458 1457 1457 1458 1458 1459 1461 1462 1463 1465 1467 1469 1471 1473 1476 1479 1482 1485 1488
1504 1503 1501 1498 1496 1494 1491 1489 1486 1484 1481 1479 1476 1473 1471 1468 1466 1464 1461 1459 1457 1456 1456 1455 1455 1454 1454 1454 1454 1455 1456 1457 1459 1461 1462 1464 1466 1468 1471 1473 1476 1478 1481
1502 1501 1499 1497 1495 1492 1490 1487 1485 1483 1480 1477 1475 1472 1469 1467 1464 1462 1460 1457 1455 1454 1453 1452 1452 1451 1451 1451 1451 1451 1452 1453 1454 1456 1458 1459 1461 1464 1466 1469 1471 1474 1478
1500 1499 1497 1495 1493 1491 1488 1486 1484 1481 1479 1476 1474 1471 1468 1466 1463 1461 1458 1455 1454 1452 1451 1450 1449 1448 1448 1448 1447 1447 1448 1448 1450 1451 1453 1455 1457 1459 1461 1464 1466 1469 1472
1498 1497 1495 1493 1491 1489 1487 1484 1482 1480 1477 1475 1472 1470 1467 1465 1462 1459 1457 1454 1452 1450 1449 1448 1446 1445 1445 1444 1444 1443 1443 1444 1445 1446 1448 1450 1451 1453 1456 1458 1461 1463 1466
1496 1494 1492 1490 1489 1486 1484 1482 1480 1478 1476 1473 1471 1468 1466 1463 1461 1458 1455 1453 1450 1448 1446 1445 1443 1442 1441 1440 1440 1439 1439 1440 1441 1442 1443 1444 1446 1448 1450 1453 1456 1459 1461
1493 1491 1489 1487 1485 1484 1482 1480 1478 1476 1473 1471 1469 1467 1465 1462 1459 1457 1454 1452 1449 1447 1444 1442 1441 1439 1438 1437 1436 1436 1436 1436 1436 1437 1439 1440 1442 1444 1446 1448 1451 1454 1457
1490 1487 1485 1484 1482 1480 1478 1476 1475 1473 1471 1469 1467 1465 1462 1460 1458 1455 1453 1450 1447 1445 1442 1440 1438 1437 1435 1434 1434 1433 1433 1432 1433 1434 1435 1436 1438 1440 1442 1445 1447 1450 1453
1486 1484 1482 1480 1479 1477 1475 1473 1472 1470 1468 1466 1464 1462 1460 1458 1456 1453 1450 1448 1446 1443 1441 1438 1437 1435 1434 1433 1432 1431 1430 1430 1430 1431 1432 1433 1435 1437 1439 1441 1444 1447 1450
1483 1481 1479 1477 1475 1473 1471 1470 1468 1467 1466 1464 1461 1460 1457 1455 1453 1451 1449 1446 1444 1442 1439 1437 1435 1434 1432 1431 1430 1429 1429 1428 1428 1428 1429 1430 1432 1434 1436 1438 1440 1443 1446
1480 1478 1476 1474 1472 1470 1468 1466 1464 1463 1461 1460 1458 1456 1454 1452 1450 1448 1447 1445 1443 1441 1438 1436 1434 1433 1432 1431 1429 1428 1427 1427 1427 1427 1427 1428 1430 1432 1433 1435 1437 1440 1443
1478 1476 1473 1471 1469 1467 1465 1462 1460 1458 1457 1455 1454 1452 1451 1449 1447 1445 1443 1442 1440 1438 1436 1435 1433 1432 1430 1429 1428 1428 1427 1426 1426 1426 1426 1427 1428 1430 1431 1433 1435 1437 1440
1477 1474 1471 1469 1467 1464 1462 1460 1458 1456 1454 1451 1450 1449 1447 1445 1443 1441 1440 1438 1436 1435 1434 1432 1431 1430 1429 1428 1427 1426 1425 1425 1425 1424 1425 1425 1427 1428 1430 1431 1433 1435 1438
1475 1472 1470 1467 1465 1463 1460 1458 1456 1454 1452 1449 1447 1444 1442 1440 1439 1438 1436 1434 1433 1432 1431 1429 1428 1427 1426 1426 1425 1424 1424 1423 1423 1423 1423 1424 1425 1426 1428 1429 1431 1433 1436
1474 1472 1469 1467 1464 1462 1459 1457 1454 1452 1450 1447 1445 1443 1440 1437 1435 1434 1433 1432 1430 1429 1427 1426 1425 1424 1423 1423 1422 1422 1421 1421 1421 1421 1421 1422 1423 1424 1425 1427 1429 1431 1433
1473 1471 1469 1466 1463 1461 1458 1456 1454 1451 1449 1446 1444 1441 1439 1436 1434 1432 1430 1428 1426 1425 1423 1422 1421 1420 1419 1419 1418 1418 1418 1418 1418 1418 1419 1419 1420 1421 1423 1424 1426 1428 1431
1472 1470 1468 1466 1463 1461 1458 1456 1453 1450 1448 1445 1442 1439 1436 1434 1431 1429 1426 1424 1422 1420 1418 1417 1416 1415 1414 1413 1413 1413 1413 1413 1414 1414 1415 1416 1417 1418 1419 1421 1423 1425 1427
1471 1469 1467 1465 1463 1460 1458 1455 1452 1449 1446 1444 1440 1437 1434 1431 1428 1426 1423 1420 1418 1415 1413 1412 1410 1409 1408 1407 1407 1407 1407 1408 1408 1409 1410 1411 1412 1414 1415 1417 1419 1421 1424
1470 1468 1467 1464 1462 1459 1457 1454 1451 1448 1445 1442 1439 1436 1433 1429 1426 1423 1420 1416 1413 1411 1408 1406 1404 1402 1401 1401 1400 1400 1400 1401 1402 1403 1404 1405 1406 1408 1410 1412 1413 1416 1418
1469 1467 1465 1463 1461 1458 1455 1452 1450 1447 1444 1440 1437 1433 1430 1427 1423 1420 1416 1412 1409 1406 1403 1400 1398 1395 1394 1393 1392 1392 1392 1393 1394 1395 1396 1398 1399 1401 1403 1405 1407 1410 1412
1467 1466 1464 1461 1459 1456 1453 1450 1447 1444 1441 1438 1434 1431 1427 1423 1420 1416 1412 1408 1404 1400 1397 1394 1391 1389 1386 1384 1384 1384 1383 1384 1385 1386 1387 1389 1391 1393 1395 1398 1400 1403 1406